Theta_e
335 335 335 335 335 333 333 333 333 333 331 331 330 331 331 332 332 332 333 333 334 334 334 335 335 334 334 334 332 331 331 332 333 334 333 332 332 332 331 331 331 329 329 329 330 330 329 328 328 327 326 326 325 325 324 325 324 324 325 325 325 327 324 318 319 318 321 322 323 323 324 324 322 322 321 320 320 322 322 321 320 323 324 323 321
332 335 335 335 334 334 334 334 334 333 332 331 331 331 331 332 332 332 332 333 335 335 335 335 336 335 334 334 333 332 332 332 333 333 333 332 332 333 331 330 329 328 328 328 328 328 327 326 326 326 326 326 325 325 324 324 324 324 325 327 326 328 325 321 318 317 317 321 322 323 323 322 319 322 319 317 317 320 319 319 321 323 323 323 322
332 334 335 334 334 335 334 334 334 333 332 331 331 331 332 332 333 332 332 333 335 336 336 335 335 335 335 335 334 333 333 333 334 334 333 333 332 332 332 330 329 328 328 328 328 326 325 325 325 325 325 323 324 325 324 324 324 324 325 326 326 327 327 324 320 318 320 319 322 320 320 320 317 319 321 319 318 319 317 317 318 322 325 324 322
332 332 333 334 335 334 334 334 333 333 333 332 332 332 332 332 333 333 332 333 334 335 336 336 335 335 335 335 334 333 333 334 334 334 334 333 333 332 332 331 330 329 329 328 327 326 325 324 324 325 325 323 323 323 323 323 324 324 325 325 326 328 328 324 323 318 317 320 320 319 320 317 318 319 320 318 317 317 316 315 316 318 318 323 323
330 330 328 327 327 329 332 333 332 332 333 333 332 332 332 332 333 333 333 332 333 333 335 336 335 335 335 335 334 334 333 334 334 334 334 334 334 333 333 331 330 330 330 329 331 326 325 325 325 325 325 323 321 322 323 323 324 325 326 325 328 328 327 326 325 323 321 320 319 319 318 316 317 317 317 317 315 315 314 314 315 315 315 316 325
329 329 326 326 326 327 328 329 329 327 328 328 328 330 331 331 332 333 333 332 332 333 333 335 336 335 336 336 335 335 334 334 334 334 335 334 334 334 333 332 331 330 330 329 329 326 325 325 325 325 324 323 322 322 323 323 324 326 326 327 327 328 327 325 324 323 321 320 319 317 316 316 314 315 316 315 314 312 313 312 312 314 314 315 316
328 328 326 326 326 328 329 329 328 328 329 328 329 328 327 329 330 331 332 333 332 332 333 334 335 335 336 336 336 335 335 334 334 334 335 335 334 333 332 332 332 331 330 329 328 326 326 325 325 325 325 324 323 323 324 324 326 327 329 328 326 326 326 325 324 323 321 320 317 317 316 316 313 313 316 315 313 311 311 310 311 311 311 311 315
324 326 326 325 325 327 329 328 328 329 328 328 328 327 328 327 328 331 331 331 332 332 332 333 334 335 335 335 336 336 335 334 334 334 335 335 334 333 333 332 331 331 330 329 328 327 326 326 325 326 326 325 325 324 325 325 327 327 327 328 327 325 325 323 323 322 321 319 318 316 313 314 313 313 315 313 312 312 311 308 309 310 312 309 310
321 324 324 324 325 326 328 329 329 329 328 327 327 326 327 327 329 330 331 332 332 332 333 333 333 334 335 335 335 335 335 334 334 334 334 334 334 333 332 332 332 330 329 328 327 326 326 326 326 326 328 331 332 330 329 331 328 327 327 327 326 326 324 323 322 321 319 319 317 314 313 312 313 313 311 309 309 310 309 309 307 308 309 310 312
320 322 322 323 325 326 327 328 328 328 327 326 327 327 327 327 328 328 330 332 332 332 332 333 333 333 333 333 333 334 334 334 335 327 328 334 334 333 333 332 332 331 330 328 327 326 326 325 327 334 334 335 334 328 322 324 330 331 329 327 327 325 324 322 321 320 320 318 317 315 311 311 310 313 312 310 308 309 309 307 308 308 306 304 305
316 317 319 322 323 325 325 326 327 326 327 326 326 327 327 327 329 329 329 330 332 332 332 331 332 333 333 333 331 332 333 334 324 313 313 320 333 333 332 331 331 331 329 328 327 326 325 325 325 331 335 336 333 323 319 318 318 322 323 329 332 328 324 322 321 320 320 319 317 315 313 310 312 313 313 311 309 312 309 308 309 305 303 302 304
312 313 315 318 322 324 324 326 326 326 326 326 326 326 327 327 327 328 329 330 331 331 331 331 332 332 333 333 332 332 332 330 313 311 310 310 322 333 332 331 331 330 329 328 327 326 325 325 325 327 330 330 330 328 324 320 313 311 312 317 318 321 321 325 322 318 318 318 315 317 314 312 313 313 310 310 311 308 307 308 305 304 302 302 301
311 312 314 316 320 324 324 325 326 326 326 326 327 326 326 327 327 327 328 330 331 330 330 330 330 332 333 332 332 332 332 320 311 310 308 308 310 327 332 331 330 329 329 328 327 326 325 325 324 325 329 335 335 329 325 324 319 316 316 319 319 315 308 310 315 326 322 320 318 316 315 313 312 314 314 313 312 310 307 308 305 304 302 302 301
310 312 313 315 319 322 324 324 325 326 326 327 327 327 326 326 327 327 327 328 329 328 325 327 328 329 331 332 332 333 332 323 310 309 308 306 306 315 332 330 330 330 329 329 328 326 326 325 324 324 326 329 331 329 326 323 321 319 321 322 323 328 314 307 311 315 321 322 320 318 317 315 315 314 316 313 312 311 310 309 307 305 305 305 304
311 312 312 314 317 320 322 323 324 325 326 327 327 327 327 327 325 326 327 327 326 326 325 325 325 326 326 328 331 332 333 318 309 307 307 305 305 312 331 331 330 329 329 329 328 327 326 326 326 326 326 327 330 330 326 324 320 321 319 322 323 325 323 322 321 321 323 322 321 320 318 316 316 316 316 313 315 314 314 311 310 308 306 306 309
311 311 312 313 315 317 320 321 322 324 325 325 326 326 326 326 326 326 326 326 326 326 325 326 325 325 326 327 328 326 332 313 307 306 306 305 304 320 330 330 329 329 329 329 329 328 327 326 326 326 327 327 328 315 322 324 322 321 320 320 320 319 321 325 315 317 323 322 321 319 318 318 313 315 316 315 313 315 317 311 310 308 307 305 307
310 311 313 313 314 315 317 319 320 322 323 324 324 325 325 326 326 326 325 325 325 325 325 325 326 326 326 327 327 326 329 315 305 306 305 304 306 324 329 330 330 329 329 329 329 328 327 327 326 326 327 327 319 306 308 322 323 322 321 319 318 317 319 316 303 299 298 301 306 309 308 306 304 304 305 306 312 313 310 309 306 305 304 303 303
310 311 311 313 313 314 316 318 320 321 321 322 323 324 325 326 327 326 325 325 325 325 326 326 326 327 326 326 327 326 326 322 306 304 305 303 313 325 329 330 329 329 329 329 329 328 328 333 332 326 328 328 310 303 304 320 323 322 321 319 318 317 318 314 312 306 297 297 297 300 304 301 302 302 304 304 304 311 311 308 307 305 306 304 301
309 310 311 312 313 314 315 318 319 321 321 322 323 323 324 325 326 327 327 327 327 327 326 326 327 327 327 327 329 328 327 324 307 302 303 302 311 326 328 329 329 328 328 327 327 328 327 332 332 328 329 325 306 303 302 319 325 323 322 321 320 319 320 316 313 309 307 307 307 307 306 308 309 311 312 304 305 315 311 310 307 307 306 303 303
308 309 311 311 312 313 314 317 318 320 321 322 322 324 324 323 324 325 326 326 326 326 325 325 325 326 327 327 327 329 328 328 316 302 302 302 305 326 328 328 328 327 327 327 326 326 327 328 327 311 310 308 304 301 301 307 325 325 324 322 321 320 321 317 315 313 312 313 310 310 310 307 308 310 308 305 309 314 306 307 309 308 306 307 306
309 309 310 310 311 312 313 314 316 318 320 320 321 322 322 323 324 325 325 325 325 325 324 324 325 326 327 327 327 327 329 328 322 302 300 301 302 315 328 328 329 328 327 325 327 326 326 327 329 316 306 306 303 300 301 303 313 327 324 324 323 323 317 318 318 321 314 312 311 309 308 307 307 307 306 305 307 309 307 306 309 308 307 306 304
309 309 309 309 310 311 312 313 315 317 319 320 319 320 321 323 324 324 324 323 323 323 324 323 324 325 327 327 328 328 330 326 327 304 300 300 300 306 326 328 328 329 327 326 326 326 327 327 327 318 305 304 302 300 300 302 304 324 324 312 310 306 320 320 317 316 313 313 310 309 309 308 306 308 307 307 308 310 309 308 308 308 308 308 307
308 309 309 309 310 311 312 312 314 316 317 318 318 319 319 320 322 323 323 323 323 323 323 323 324 325 325 325 325 325 325 324 313 315 301 298 299 302 309 320 311 329 328 326 326 326 326 327 328 320 303 303 301 300 300 301 306 317 308 305 304 302 314 318 315 315 312 311 310 310 308 308 308 307 308 308 308 308 308 308 308 308 308 308 308
306 306 307 308 308 310 311 312 313 314 315 317 317 318 318 319 320 322 322 322 322 322 320 321 322 322 322 320 320 321 322 322 312 307 306 297 297 298 301 307 309 323 328 327 327 327 325 325 323 309 302 302 301 300 300 302 309 306 303 302 300 304 320 316 313 314 311 309 309 309 309 309 309 309 309 310 311 311 310 308 308 309 309 308 307
304 304 305 307 307 309 310 310 311 312 314 316 317 318 318 318 319 320 321 320 321 320 320 320 321 322 320 320 319 320 321 321 316 305 302 299 300 298 297 297 300 306 323 325 324 325 317 312 309 304 302 301 300 299 299 301 302 302 301 298 311 314 317 316 315 313 311 310 310 310 310 310 311 312 312 312 310 309 308 309 308 307 306 306 306
303 304 305 306 307 308 308 309 310 312 314 315 317 318 318 318 318 320 320 321 320 320 320 319 320 320 320 320 319 320 320 319 316 312 309 306 302 299 301 300 304 303 315 320 311 309 308 306 306 304 302 302 303 307 309 308 299 299 299 301 314 315 316 316 314 313 313 312 311 311 311 310 310 312 309 308 309 310 310 310 308 307 308 307 305
304 304 305 306 306 307 307 308 310 312 313 314 316 318 319 318 318 318 319 320 320 319 318 316 318 319 320 320 319 319 319 319 319 315 311 312 312 309 308 307 304 302 308 305 308 313 311 311 312 305 307 302 304 306 308 303 302 304 303 309 314 315 316 317 316 315 314 313 312 312 312 313 310 308 308 309 309 310 309 309 309 310 308 305 306
304 304 305 305 306 306 307 307 309 310 311 313 314 316 318 318 319 319 319 320 320 318 318 318 318 319 320 319 318 318 319 318 318 318 313 311 310 310 309 310 310 311 313 312 313 315 313 305 304 309 308 308 311 311 310 308 308 306 309 310 312 311 315 320 319 314 314 314 314 310 309 308 310 312 309 309 311 311 309 309 309 310 307 307 304
304 304 304 304 305 306 306 307 308 309 310 312 314 315 317 318 318 319 320 322 322 321 321 320 320 321 322 320 318 318 319 319 319 309 314 306 310 311 309 311 313 313 315 307 314 312 311 312 311 309 310 310 310 312 310 309 308 308 311 310 311 310 311 313 315 313 312 311 312 312 313 310 311 309 310 308 310 310 309 310 309 310 306 308 309
303 304 304 304 304 305 305 305 307 308 310 311 312 314 300 297 304 315 319 312 306 306 307 320 321 321 320 321 321 321 321 323 309 305 304 302 302 304 306 306 305 313 307 299 310 314 314 314 313 313 311 312 312 311 311 311 310 309 309 304 308 309 309 311 312 313 311 311 311 310 312 310 311 310 308 309 308 306 309 307 310 309 308 307 307
304 303 303 303 303 304 304 304 306 307 309 311 311 311 313 305 293 292 294 297 296 299 301 303 306 307 318 321 317 309 309 309 304 304 303 302 301 302 302 302 302 301 300 311 316 316 315 314 312 312 312 313 313 313 312 311 310 311 310 309 309 309 307 309 311 308 308 309 310 311 311 310 312 309 309 308 308 306 304 305 310 308 309 308 307
303 303 303 303 302 301 303 304 304 306 308 310 311 311 312 312 311 297 292 293 294 296 299 301 303 304 305 311 320 319 308 305 301 303 303 302 301 301 300 300 300 300 301 305 313 315 316 316 313 313 313 313 312 312 313 313 312 313 311 309 309 308 309 310 311 311 311 310 310 310 310 310 310 307 306 306 304 305 305 305 307 307 307 305 307
303 302 302 302 302 302 302 303 304 305 307 308 309 310 311 311 311 312 302 294 292 296 299 299 300 303 304 304 307 309 308 307 304 300 300 301 300 299 299 299 298 298 301 313 316 316 316 316 315 314 313 314 313 313 312 312 312 312 312 312 310 309 310 311 309 311 310 311 311 310 310 310 308 308 302 302 304 304 304 306 306 307 306 306 304
303 303 303 303 302 303 303 304 305 306 307 308 309 309 310 311 312 312 311 306 304 299 297 297 299 299 299 301 304 305 305 304 303 301 300 299 299 299 299 299 297 299 306 316 317 316 316 316 315 315 314 314 313 311 311 311 311 312 310 310 311 311 311 310 310 310 310 309 310 309 307 308 306 307 306 306 303 303 305 304 306 305 304 306 306
304 300 299 299 303 304 305 305 306 307 308 308 309 308 309 310 310 310 311 310 309 309 310 306 297 296 304 302 301 302 303 303 301 301 301 299 298 297 299 305 304 303 306 314 316 317 315 315 315 314 315 314 313 312 312 312 312 311 311 311 310 310 307 308 310 310 310 310 311 311 309 309 309 307 308 306 304 303 304 304 304 307 307 305 305
303 304 304 302 303 304 305 306 306 307 307 308 309 309 309 310 309 309 309 309 310 311 308 304 300 293 295 298 299 300 300 300 300 299 299 298 297 300 310 310 310 308 307 313 315 315 315 315 315 316 315 312 312 313 313 312 312 313 313 313 311 310 310 309 309 311 311 312 312 311 309 308 307 306 307 306 307 308 307 306 305 304 304 305 305
303 304 305 305 306 306 306 306 306 307 301 305 307 309 310 310 309 310 309 310 310 310 308 301 299 300 297 299 299 295 297 297 297 297 297 297 297 307 316 314 314 311 309 313 315 315 315 315 315 314 313 313 313 314 313 313 312 312 311 312 312 312 311 311 310 306 311 310 311 311 311 311 310 309 310 308 305 305 306 304 305 300 301 301 296
304 304 304 305 305 305 305 306 306 299 304 306 308 310 310 311 310 308 308 309 308 306 305 302 303 305 304 300 303 300 295 294 296 297 297 297 300 312 315 314 314 313 312 314 313 314 314 314 313 313 314 314 314 313 314 315 315 314 313 313 313 313 306 308 309 311 312 312 311 309 305 309 309 309 305 309 305 306 305 299 303 302 299 293 298
305 298 296 296 296 304 305 305 305 305 306 307 309 309 309 310 309 309 309 309 306 306 305 305 306 306 304 302 302 303 304 307 308 306 305 307 310 313 313 314 313 313 313 313 312 312 313 312 312 312 313 313 312 314 314 314 314 313 312 312 311 311 310 311 312 311 307 308 307 307 307 306 306 307 306 305 300 301 303 301 301 301 301 296 299
305 306 301 296 300 300 301 302 304 305 306 308 309 311 310 309 309 309 310 309 307 306 307 306 305 304 304 305 305 309 309 308 307 308 309 309 310 311 313 314 314 313 313 313 314 314 314 313 314 314 313 312 313 312 312 311 312 311 311 309 310 309 309 309 309 309 307 306 304 304 303 305 304 301 301 300 300 299 300 299 296 299 303 299 300
307 307 299 298 298 303 302 302 303 305 308 308 310 311 311 309 309 309 310 308 307 307 306 305 306 306 305 303 302 303 309 307 308 308 309 309 310 310 310 311 311 312 312 312 312 312 312 311 311 311 311 311 310 309 309 309 309 309 309 307 307 306 307 307 306 306 305 303 303 300 299 298 295 297 296 296 296 297 294 293 291 295 294 295 297
307 305 304 303 300 302 304 304 305 304 305 306 310 311 308 307 308 309 308 308 306 306 306 305 305 305 299 297 299 301 308 307 307 307 308 308 307 307 307 310 311 311 311 310 310 309 309 309 308 308 308 307 307 307 306 308 308 308 307 306 306 305 304 303 302 302 301 299 299 299 294 292 292 293 294 294 291 291 292 292 294 293 294 293 292
303 303 303 303 304 304 305 306 307 309 309 309 309 302 304 308 307 306 305 305 305 305 305 304 304 303 301 296 298 297 307 308 301 307 307 307 307 307 308 309 310 310 310 310 311 310 309 308 308 307 307 306 306 306 306 307 307 307 306 305 304 303 302 300 299 298 298 298 297 295 297 293 293 293 292 291 292 290 290 291 290 290 290 292 293
304 303 302 302 303 303 303 305 304 304 304 300 301 303 303 304 305 305 305 305 305 304 305 305 305 304 302 300 300 304 307 307 308 308 307 305 306 307 308 308 308 309 309 309 309 308 308 306 304 302 301 299 299 298 299 300 301 301 299 297 295 294 296 295 296 297 296 294 294 294 294 293 292 292 291 290 292 291 290 291 290 289 289 290 291
303 302 301 301 301 302 303 304 305 304 302 302 305 304 302 305 305 304 304 304 302 303 304 303 303 303 302 304 305 305 305 305 303 304 305 306 306 307 307 307 306 306 306 305 306 307 305 303 300 297 295 295 294 293 293 293 294 294 295 294 293 292 291 292 292 293 294 293 291 290 291 291 292 291 290 289 290 291 289 290 289 289 290 290 291
302 301 300 300 300 298 299 301 300 304 305 305 305 306 305 305 304 303 302 302 302 302 303 302 303 302 303 305 304 303 305 305 304 304 303 305 304 305 304 304 304 304 303 303 303 303 301 299 297 295 293 291 290 290 290 289 290 290 290 290 290 289 289 290 290 290 291 291 291 289 288 288 290 289 288 288 288 288 289 290 289 288 289 288 288
303 302 300 300 299 298 297 296 298 300 303 302 302 303 303 302 302 300 298 299 301 301 303 304 304 304 304 304 304 303 303 303 303 303 303 303 303 303 302 302 301 301 301 301 301 300 298 296 295 293 291 290 289 288 287 287 287 287 287 287 287 287 287 287 287 288 288 289 289 289 288 287 287 287 288 288 287 287 287 288 287 288 288 288 288
303 302 301 300 301 300 300 300 299 295 299 299 299 299 299 300 301 300 301 301 302 302 303 304 304 303 301 302 301 301 301 301 301 300 301 301 300 300 300 299 298 298 298 298 298 297 296 295 293 291 290 288 288 287 287 286 286 286 285 285 285 285 284 284 285 285 286 286 287 288 288 287 286 287 287 288 288 287 287 286 286 286 287 287 287
303 302 301 301 300 300 300 300 299 301 301 301 300 301 300 301 300 302 301 301 301 301 302 301 301 301 300 299 299 299 299 298 299 299 298 297 297 297 297 296 296 296 296 296 295 294 293 292 291 290 289 288 287 286 286 285 284 284 284 283 283 282 282 282 282 282 282 284 284 284 285 285 285 285 285 286 285 285 285 285 285 285 284 286 286
301 300 300 300 300 300 301 301 301 301 300 301 301 300 300 300 300 300 300 300 300 300 300 300 299 299 299 298 297 297 297 296 296 296 295 295 295 295 294 294 294 294 294 293 293 292 291 290 289 288 287 286 286 285 284 284 283 283 282 282 281 281 281 281 281 281 282 282 282 282 283 283 284 283 284 284 285 285 284 283 283 285 284 285 286
298 299 298 299 299 299 300 300 300 300 301 300 301 300 299 300 300 299 299 299 299 298 298 298 298 297 296 296 294 295 294 294 294 293 293 292 292 292 292 292 292 292 292 292 291 291 290 289 288 287 286 285 284 283 283 282 282 281 280 280 280 281 281 281 282 282 282 281 283 283 283 283 283 282 283 283 284 284 283 284 283 283 283 284 285
Wind_Speed
9 10 10 11 11 11 11 10 10 8 8 10 10 9 7 7 7 8 6 7 7 7 7 7 7 7 6 6 6 6 6 6 5 6 6 6 6 6 6 6 7 6 5 6 5 5 6 5 4 4 3 4 4 2 2 3 1 1 2 3 4 4 4 3 5 4 2 1 3 3 3 6 3 1 3 2 2 3 4 4 4 4 3 3 3
7 8 8 8 9 9 10 9 10 9 8 9 11 11 9 8 7 7 8 8 8 8 8 7 7 7 6 6 6 6 6 6 6 6 7 7 6 5 6 7 6 5 5 6 6 5 5 6 6 5 4 5 5 5 4 3 4 4 4 5 5 4 4 3 3 5 3 1 4 3 2 1 4 0 4 4 3 3 5 3 1 3 3 3 2
7 6 7 9 10 10 9 9 9 10 11 9 10 11 11 10 8 9 8 8 8 9 9 8 8 7 6 7 7 7 7 7 6 7 7 7 7 6 6 7 7 6 7 7 7 5 5 6 6 5 4 4 5 5 4 4 4 5 4 3 4 4 5 3 4 3 6 2 2 5 2 1 3 3 1 3 3 4 4 4 3 2 1 3 3
7 6 4 7 9 9 10 9 9 10 11 10 10 9 10 11 10 10 9 8 9 8 8 9 8 7 8 8 7 7 7 7 7 7 8 8 8 8 7 7 6 7 8 8 7 7 7 6 6 6 5 5 4 4 4 3 4 4 4 3 3 4 4 3 5 5 2 6 1 4 2 4 2 2 3 3 4 3 3 1 1 3 2 1 2
6 4 6 9 10 8 7 4 4 6 7 7 7 7 6 8 9 10 9 9 8 8 7 7 8 8 9 9 8 8 8 8 8 7 7 7 8 8 8 8 7 7 8 8 7 7 7 8 7 6 5 6 4 5 5 6 6 5 4 3 4 4 3 4 5 5 6 6 4 0 2 2 1 2 2 6 2 3 2 3 2 3 3 2 2
6 1 3 5 5 5 6 8 8 8 8 9 9 8 5 4 5 7 9 10 9 8 9 8 8 9 9 9 8 8 8 7 8 8 8 7 6 7 7 8 8 7 7 7 7 7 7 8 6 6 7 7 7 5 5 6 4 4 3 3 3 4 5 4 5 6 7 7 6 3 1 5 2 1 1 3 6 3 3 3 3 3 3 3 2
4 1 2 6 6 7 7 10 8 8 7 7 3 2 6 10 5 5 6 8 9 9 9 9 9 9 9 8 9 9 8 8 8 7 7 7 7 6 6 6 7 7 7 8 7 7 7 7 6 7 8 8 7 7 6 5 5 5 5 5 4 4 6 6 6 7 7 6 3 4 5 1 3 4 0 1 3 3 4 2 1 2 1 2 0
3 1 3 5 6 8 6 2 6 9 10 9 9 9 8 7 7 7 5 7 9 10 10 10 9 8 9 9 9 8 8 8 7 7 7 8 7 7 6 6 6 6 6 7 7 7 7 7 7 7 8 7 7 6 6 7 5 5 5 5 5 5 6 6 6 7 7 6 5 5 2 4 1 1 1 2 2 1 1 2 3 1 0 1 1
4 2 3 5 7 7 4 5 6 5 6 9 11 12 13 13 12 10 8 9 9 9 9 10 9 9 9 9 8 8 8 9 8 8 8 8 7 7 7 7 7 7 6 6 5 6 6 6 6 6 8 9 10 7 8 7 7 6 5 6 7 7 6 6 7 6 6 6 4 2 4 4 4 6 4 3 4 7 3 2 2 2 2 0 1
6 3 2 6 6 5 4 3 6 7 7 8 9 11 11 11 10 11 10 10 10 10 9 9 10 11 10 9 8 8 8 8 10 15 12 9 8 7 7 7 7 7 7 6 5 5 6 6 6 11 13 13 11 11 11 10 8 6 8 7 7 7 7 7 6 6 6 6 6 5 5 6 6 7 6 5 3 2 4 3 3 2 0 1 3
6 5 6 4 4 5 6 6 5 6 8 7 6 9 11 10 10 11 11 10 10 10 10 11 10 10 11 10 10 9 8 8 14 15 16 16 10 8 8 7 7 7 7 7 8 7 6 6 5 8 10 10 8 12 11 10 9 6 9 11 9 9 7 7 6 6 7 6 5 4 5 6 7 6 7 5 3 5 5 4 4 1 1 1 0
6 7 6 6 5 4 5 6 7 8 7 8 8 9 7 7 9 9 9 10 10 9 10 11 11 10 9 9 10 10 9 12 15 16 16 16 14 9 8 7 7 7 7 8 7 7 7 6 6 5 6 7 6 6 8 11 10 8 8 11 11 12 12 10 7 5 5 6 5 6 6 7 7 6 4 4 5 3 3 4 3 3 3 1 1
5 7 7 7 8 7 3 5 6 6 8 9 9 9 8 8 8 9 11 10 7 8 11 10 10 9 9 10 10 10 10 14 16 17 17 17 17 13 8 8 8 8 8 8 8 7 7 6 6 6 6 11 8 5 5 6 8 8 9 10 11 11 12 13 12 11 8 7 7 6 7 6 6 7 7 6 5 6 3 3 2 3 3 3 4
5 6 6 6 7 7 6 3 4 5 6 7 7 8 8 8 7 5 5 5 6 6 4 4 3 3 6 9 11 10 11 14 18 18 18 19 18 15 9 9 9 9 10 9 8 8 8 7 7 7 6 6 6 6 5 5 4 3 3 5 6 7 8 9 11 11 10 8 7 8 7 5 8 8 6 6 8 7 6 6 4 3 3 3 2
7 6 7 6 6 7 7 5 5 5 5 5 6 7 7 6 3 4 6 7 7 9 11 11 10 9 5 4 6 9 10 16 17 19 19 19 19 16 10 9 9 9 9 9 9 9 9 8 8 8 7 7 7 8 7 6 4 4 4 5 5 6 6 6 5 5 5 4 7 7 6 7 6 7 8 7 9 9 9 7 8 5 3 0 0
7 7 7 8 7 6 7 7 5 5 5 5 5 6 6 5 6 7 7 7 6 7 8 9 12 13 14 14 11 8 10 15 18 20 21 19 19 12 10 10 10 9 10 9 9 9 8 8 8 8 7 8 10 13 10 7 6 6 6 5 4 4 5 2 1 2 2 5 7 7 6 8 8 8 9 9 5 5 4 5 4 3 3 1 1
6 6 7 8 8 7 7 8 7 5 4 4 6 6 6 6 7 6 6 6 8 9 10 11 10 10 11 11 12 13 12 11 17 20 21 21 15 10 10 9 9 10 10 10 10 9 8 9 8 8 8 8 10 14 14 11 7 8 7 6 5 4 6 1 4 6 7 6 6 7 10 11 11 12 14 14 10 8 7 6 4 4 4 2 1
5 6 6 8 9 9 8 8 8 6 4 5 6 6 5 6 8 8 10 10 10 10 10 10 9 8 10 11 12 12 12 14 17 19 22 20 18 13 11 10 10 10 9 8 8 8 9 15 12 9 9 9 13 16 16 13 9 8 7 6 5 5 6 2 1 1 5 5 6 5 2 9 12 13 15 14 14 11 9 8 6 6 6 5 4
4 6 7 7 9 9 8 9 9 7 5 6 5 6 5 6 6 7 9 10 12 11 9 9 10 9 10 11 15 15 12 13 14 17 19 21 18 11 11 10 10 9 9 8 7 7 8 10 15 12 10 11 16 17 17 14 9 9 9 8 8 8 8 6 5 3 1 1 1 1 2 1 3 6 8 13 15 11 8 8 7 7 7 6 4
4 4 6 7 7 8 8 9 9 8 7 6 5 6 6 4 5 7 8 8 9 7 6 5 8 9 9 9 11 13 12 11 11 17 20 20 21 13 10 10 11 11 10 9 8 7 8 8 11 16 16 15 15 16 17 16 10 9 8 9 8 10 6 6 6 6 5 5 4 3 4 3 3 2 3 4 5 5 4 6 8 7 7 7 6
5 5 5 6 8 9 8 7 10 10 7 6 6 5 5 7 7 7 7 6 7 8 7 9 11 11 9 10 10 10 11 12 13 18 17 20 21 17 10 12 11 10 10 9 9 9 8 8 8 13 17 16 15 16 17 19 16 10 10 10 11 9 9 7 8 8 6 4 4 3 3 3 3 2 3 4 6 5 3 4 6 7 8 7 7
6 6 7 7 7 9 9 8 8 8 8 7 6 6 6 7 8 9 7 7 10 12 11 8 9 11 10 9 9 10 10 11 7 9 17 19 19 20 11 11 11 10 9 9 9 8 9 9 9 12 17 17 16 16 18 18 18 9 11 14 13 13 11 8 8 7 6 6 5 5 4 4 4 4 3 5 6 5 4 5 5 5 6 8 9
5 7 8 9 9 9 9 9 9 7 8 8 7 8 6 6 8 8 9 9 12 14 12 9 10 10 8 7 6 6 7 6 11 8 12 17 19 19 17 12 14 11 10 10 10 10 8 9 10 14 17 17 16 17 17 18 14 10 13 13 13 16 11 7 7 8 7 6 6 6 6 6 6 6 6 7 7 6 6 6 5 5 5 4 4
4 5 7 8 9 9 9 10 10 9 9 9 9 9 7 6 7 8 9 10 10 9 8 11 12 10 9 7 6 6 7 6 9 14 9 10 11 12 15 15 15 11 10 10 9 9 9 9 10 15 17 18 17 16 17 15 12 14 12 12 13 12 7 7 7 8 7 7 7 7 7 7 6 6 7 8 8 8 8 5 5 5 5 6 5
4 4 6 6 7 8 10 10 10 10 9 8 9 10 9 6 7 8 8 9 9 9 10 10 11 10 9 9 8 7 8 8 8 14 19 17 17 11 5 14 13 13 10 8 8 9 12 15 15 16 17 17 18 17 13 14 17 15 14 12 10 6 7 7 8 7 7 8 8 8 7 8 9 9 9 7 4 2 1 3 4 4 4 3 4
5 5 5 6 6 7 10 11 10 10 10 8 8 9 10 7 7 8 8 9 9 10 9 9 9 9 10 10 9 9 7 5 7 8 10 12 11 13 12 12 12 14 12 9 12 15 16 17 18 18 16 15 10 7 8 10 12 12 12 9 6 7 7 8 7 8 8 8 8 9 9 7 7 8 3 3 5 7 7 5 5 5 6 6 4
5 5 5 6 6 6 8 9 9 10 10 9 8 9 9 6 7 8 8 9 9 9 8 9 9 10 10 10 10 10 10 9 8 8 7 8 8 12 15 15 10 4 5 3 4 8 12 12 10 10 8 13 13 11 7 7 6 4 5 6 7 7 8 9 10 9 8 8 7 7 7 6 2 2 4 6 7 7 7 6 6 6 6 5 6
7 7 7 6 6 6 7 12 12 10 11 10 10 9 8 7 8 9 9 10 9 9 9 12 12 12 11 9 10 9 10 8 7 8 7 6 5 5 6 6 6 6 6 5 6 6 6 4 5 5 5 6 4 4 4 5 6 7 6 7 7 6 5 6 6 6 6 6 6 4 3 3 5 7 5 6 7 7 5 6 6 7 6 5 3
8 8 7 6 7 7 7 8 9 10 11 11 10 9 10 9 9 10 11 9 9 10 11 11 11 10 9 10 11 10 9 10 10 12 12 14 11 10 9 11 10 9 11 12 7 6 6 6 6 6 6 7 6 6 6 6 6 5 6 6 6 6 6 7 7 7 7 6 7 7 7 6 6 6 6 6 7 7 4 6 5 6 3 5 8
8 9 7 7 7 7 8 8 9 9 10 11 11 10 5 7 8 8 9 9 13 14 10 10 9 6 5 6 8 12 11 10 13 17 15 16 16 18 16 17 16 14 11 11 7 6 6 7 7 8 7 7 7 7 7 7 7 6 6 5 6 6 6 6 6 6 6 7 6 6 6 6 6 6 6 7 6 5 6 7 6 6 7 8 8
9 9 7 7 8 8 8 9 9 9 9 10 10 10 10 7 8 8 9 10 9 12 16 16 14 12 9 9 10 17 13 15 15 17 17 18 18 17 17 16 19 13 17 12 7 9 7 8 7 6 7 8 8 8 8 8 8 8 8 7 6 7 7 6 6 5 5 5 6 6 7 7 7 7 7 7 7 5 4 3 4 5 6 7 7
9 8 8 7 8 7 9 10 9 9 9 9 10 10 9 11 9 8 7 6 9 12 16 19 18 17 18 17 12 11 10 6 9 17 19 19 19 17 16 15 14 16 18 13 7 7 8 8 8 8 8 8 8 8 8 8 8 9 8 7 7 6 8 8 7 7 6 6 6 6 6 7 7 7 6 6 5 6 4 5 5 6 6 5 6
9 9 8 8 8 10 10 10 10 9 10 11 11 10 10 10 11 10 4 1 5 10 15 15 16 18 19 20 19 16 11 9 8 10 14 17 17 17 17 15 15 14 12 9 10 9 8 8 9 8 9 9 8 8 8 7 8 7 7 8 7 7 8 7 6 7 7 7 7 7 7 7 6 5 4 3 5 4 5 5 5 5 5 6 6
10 9 8 9 10 9 9 10 10 10 10 10 11 11 10 10 11 11 10 5 1 1 2 6 10 13 15 17 18 17 17 17 16 16 14 13 15 16 14 9 13 17 17 12 11 11 9 9 9 9 9 9 9 8 8 7 7 7 6 6 6 6 6 5 7 7 6 6 7 7 6 6 5 5 5 4 4 4 6 5 5 5 5 7 7
10 12 16 13 9 10 10 11 11 10 10 11 11 11 11 11 11 11 11 9 8 8 7 7 4 4 10 12 17 19 19 17 16 15 15 13 11 11 15 11 9 6 8 8 11 10 10 10 9 9 9 9 10 10 10 9 8 8 8 7 6 5 4 6 6 6 6 6 6 6 6 6 6 6 6 6 5 5 6 5 6 6 6 5 6
10 9 9 11 10 10 11 12 11 11 11 11 11 12 12 11 11 11 11 10 10 10 7 5 3 2 4 8 10 13 13 15 15 14 13 14 15 18 9 8 8 10 11 10 9 8 8 8 9 9 7 4 4 7 8 9 9 8 8 8 8 7 6 6 6 6 6 6 6 6 5 6 6 6 6 5 6 7 6 7 6 6 6 6 6
8 9 9 10 11 12 13 13 13 12 12 12 12 12 12 11 11 10 10 11 10 8 7 6 5 3 3 1 3 6 8 7 6 4 8 13 19 14 9 10 9 9 9 10 9 8 9 9 8 6 7 8 7 7 7 7 7 6 6 6 6 7 6 6 6 4 6 5 6 6 7 7 6 6 7 7 5 5 6 6 5 6 7 7 5
10 11 11 12 12 14 14 14 14 14 13 12 12 12 12 11 11 11 11 10 9 8 8 8 8 9 9 6 6 5 7 11 15 13 12 8 5 6 6 8 8 9 10 7 5 7 7 5 4 7 6 7 7 7 7 7 7 6 6 5 5 5 7 7 7 6 7 6 6 6 5 5 5 5 4 6 6 6 6 4 6 6 5 4 6
11 14 18 20 17 16 15 15 14 13 12 12 12 12 12 11 11 11 10 9 8 7 7 8 8 7 6 7 7 10 11 7 7 7 8 8 9 7 5 6 6 6 6 7 8 7 6 7 7 5 5 6 6 6 7 6 6 6 5 6 6 6 7 6 6 5 4 3 4 5 5 5 5 4 5 5 5 6 5 5 5 5 5 4 5
11 11 14 21 16 18 18 16 15 14 13 13 13 12 12 12 11 12 11 9 9 8 7 6 5 6 8 9 9 9 8 7 7 7 8 7 5 4 5 7 7 8 8 8 8 8 7 7 7 8 7 5 6 6 6 6 6 6 6 6 6 6 5 5 5 5 4 5 5 4 4 4 4 5 4 4 4 4 3 3 4 5 4 4 3
11 12 13 14 17 16 15 15 14 14 13 13 12 12 11 11 11 11 10 10 9 8 7 7 6 5 6 10 13 12 10 9 8 6 6 7 7 6 5 5 4 3 8 8 6 5 6 5 5 5 4 6 6 7 6 7 8 8 7 8 8 7 7 6 6 6 6 6 6 5 5 5 5 6 4 2 3 3 1 2 2 2 1 2 2
10 10 10 11 15 14 13 12 12 14 13 11 11 11 10 10 10 10 10 10 9 9 8 7 7 7 8 14 13 13 11 9 8 9 8 7 6 6 4 5 8 6 6 7 9 9 8 8 7 6 7 6 7 8 7 7 7 8 7 8 8 8 8 7 6 6 7 7 7 7 6 5 5 5 5 4 5 3 2 2 1 0 1 1 1
5 8 9 9 3 1 5 8 10 10 10 11 10 8 10 10 9 8 8 7 8 8 8 9 8 8 10 13 14 13 10 9 8 9 8 7 7 8 7 6 9 10 7 7 9 9 8 9 9 9 9 9 8 8 8 7 7 8 8 9 8 9 8 7 7 7 7 8 7 7 7 6 6 6 5 5 5 6 6 5 4 3 2 1 1
6 9 10 5 6 7 6 7 7 6 7 9 8 8 10 9 9 10 10 9 9 8 9 8 8 10 10 8 9 10 10 9 8 8 9 8 9 9 9 8 9 10 9 9 9 9 11 11 11 10 11 10 10 10 9 8 8 8 9 9 9 9 8 8 7 6 6 7 6 6 6 6 5 5 5 5 6 6 5 4 4 3 3 3 2
7 8 8 9 10 9 9 9 11 11 11 12 11 10 9 11 10 11 11 10 9 9 8 7 7 8 9 9 9 11 11 11 11 10 10 10 12 11 10 9 9 11 10 9 9 10 11 11 12 12 12 10 10 10 10 9 9 9 8 9 9 9 7 7 6 5 5 7 6 6 6 6 6 6 5 5 4 4 4 4 3 5 5 4 4
5 5 8 11 13 12 12 12 12 12 11 11 12 12 11 12 11 11 11 11 11 10 9 8 8 9 10 11 12 13 12 11 10 10 10 11 11 11 10 10 10 11 10 10 10 12 10 11 12 12 12 11 11 10 9 9 9 10 8 8 8 8 6 5 5 6 6 6 6 6 5 4 5 4 4 3 2 2 1 1 1 1 1 3 4
3 5 8 9 11 12 11 12 12 11 11 13 12 12 12 12 12 12 12 13 12 11 11 11 11 11 12 13 13 12 11 11 10 10 11 11 11 10 10 10 11 11 11 10 11 11 11 11 11 12 12 10 8 8 8 7 6 6 7 6 7 7 5 5 5 5 5 4 4 5 5 3 3 2 3 3 3 3 2 2 2 3 3 3 4
7 8 9 9 10 10 10 12 14 13 11 12 12 11 10 11 11 11 11 12 12 12 12 12 12 12 12 12 12 12 11 11 10 10 10 10 10 10 10 11 11 11 11 11 10 10 10 11 11 11 10 10 10 9 7 7 7 8 7 7 6 6 6 6 5 6 5 4 4 4 3 3 2 1 1 1 1 1 2 3 3 2 3 4 4
8 8 9 11 11 11 10 10 9 11 11 10 11 12 11 12 12 11 11 12 12 11 11 11 12 12 11 11 11 10 11 11 11 11 10 10 10 10 10 11 11 11 11 10 10 11 11 11 11 11 10 10 8 8 7 8 8 7 6 5 6 9 10 10 6 5 5 4 4 4 4 2 1 2 2 2 2 2 2 3 2 3 2 3 3
9 9 10 11 10 9 7 8 8 9 10 11 11 11 11 12 12 12 12 12 12 11 11 11 11 11 11 11 10 11 11 11 11 10 10 9 9 9 10 11 11 10 10 10 10 10 10 10 10 10 10 9 9 8 7 7 7 6 6 6 8 9 9 10 10 10 7 5 4 3 3 2 2 2 2 2 3 3 3 3 3 4 3 3 4
11 11 11 11 11 10 10 10 11 11 10 10 10 11 11 12 12 12 12 12 12 11 11 11 11 11 11 10 10 11 11 11 10 10 10 9 9 9 9 10 11 11 11 11 10 10 10 10 9 10 9 9 9 8 7 7 6 7 7 9 9 9 9 8 7 7 7 4 3 3 3 4 3 4 3 3 3 3 4 4 4 3 3 3 4
Wind_Direction
218 211 198 199 195 194 197 197 203 207 200 185 184 194 198 196 190 186 175 188 190 199 206 211 213 214 212 210 209 208 211 208 198 193 192 197 201 196 180 178 183 186 176 196 208 192 195 198 200 220 194 192 206 195 212 200 149 96 193 208 219 234 188 134 135 136 51 48 99 118 117 118 70 111 123 99 78 71 90 117 144 151 153 186 206
235 221 211 209 206 201 198 197 198 201 207 201 190 185 187 192 191 184 187 193 190 199 205 209 210 209 211 218 218 218 216 213 202 197 198 196 201 203 194 186 188 182 182 197 200 195 188 190 207 205 185 197 183 190 193 181 178 180 211 207 223 230 216 113 149 129 142 56 84 97 124 77 112 292 152 119 80 72 68 87 169 177 169 181 169
253 244 222 209 206 202 197 198 199 201 205 208 206 191 183 181 184 188 191 191 192 195 202 206 210 210 213 216 220 223 218 216 206 197 201 195 194 202 205 196 188 181 193 202 195 185 184 199 210 203 185 186 200 199 175 197 196 189 210 234 237 229 218 145 129 118 133 127 154 141 147 48 123 176 109 106 115 107 93 64 81 98 155 158 162
274 285 274 237 219 206 201 200 200 206 210 211 211 204 188 178 178 188 191 186 189 195 196 200 205 210 212 216 218 218 218 215 209 203 200 195 194 195 200 203 194 189 194 195 191 185 190 195 210 200 191 199 203 185 184 185 203 203 219 241 220 218 198 167 142 135 145 127 204 158 174 116 88 97 108 92 98 75 81 77 48 56 16 128 156
279 314 358 355 356 338 293 251 236 234 234 234 230 216 204 188 178 182 186 194 194 187 195 194 200 205 210 212 212 213 212 210 210 211 208 200 197 194 195 199 199 199 199 194 189 189 192 202 202 189 185 202 204 195 185 185 197 194 217 248 227 194 169 147 133 122 132 142 164 153 148 108 124 151 166 117 54 57 38 63 37 9 21 351 159
280 31 60 36 6 5 17 23 36 25 8 347 332 312 283 223 194 187 185 193 195 197 193 194 200 206 210 211 210 213 212 210 212 211 212 211 203 198 196 196 200 201 202 197 190 190 198 209 201 186 185 195 206 199 192 196 184 193 204 232 208 162 142 129 122 127 134 157 153 125 153 140 113 132 241 146 127 84 44 10 18 26 24 39 1
278 175 157 170 183 208 177 144 160 190 172 168 145 359 334 316 289 219 200 195 195 199 199 198 202 205 211 211 213 212 213 214 216 215 216 216 211 205 202 199 197 199 201 198 193 191 200 206 205 196 193 197 194 194 194 197 192 192 195 202 193 156 144 143 141 140 148 155 162 164 162 185 130 148 112 124 107 133 134 71 25 320 338 110 43
279 206 183 220 217 221 227 178 171 179 173 168 163 165 179 192 238 259 213 204 206 203 200 200 201 202 208 211 214 212 213 215 214 214 215 215 212 210 205 201 197 199 197 198 196 195 198 202 205 205 203 199 196 198 192 191 194 189 189 178 176 168 152 153 146 149 157 164 165 175 168 153 87 42 73 82 76 29 94 136 157 232 274 318 216
310 198 194 223 234 234 216 171 178 184 178 176 181 188 195 194 192 198 209 208 206 209 207 200 195 199 206 208 211 211 214 215 210 205 209 213 209 205 205 202 197 199 201 200 200 200 203 204 206 209 211 209 203 195 198 199 183 180 183 176 173 176 161 164 157 155 160 159 177 120 125 139 163 142 165 170 174 186 189 116 158 259 285 355 307
336 328 222 233 243 240 227 198 189 187 186 195 200 202 199 193 196 199 207 213 210 206 206 207 203 198 199 203 205 210 215 216 212 204 201 204 204 204 201 201 197 198 200 205 209 212 212 210 215 213 214 214 206 204 210 221 222 187 171 175 172 169 169 163 164 166 158 165 187 162 143 172 180 184 180 211 171 101 102 115 144 243 7 7 300
332 337 324 298 261 226 214 212 208 215 221 211 213 216 208 198 194 195 201 209 215 211 203 205 207 206 201 197 200 208 215 218 213 203 203 202 198 198 196 200 198 196 198 198 208 210 216 221 222 222 217 218 212 203 207 212 226 224 186 180 174 167 165 163 175 168 165 178 183 158 167 179 203 195 198 183 172 163 170 161 152 119 132 120 194
330 329 323 323 309 269 234 223 216 227 230 238 228 224 220 211 205 201 200 206 210 207 209 208 207 206 205 202 201 204 212 218 211 206 202 201 198 195 193 191 193 198 199 202 208 205 208 213 222 225 219 212 209 205 205 207 214 220 207 196 186 181 171 167 166 172 172 172 179 201 166 187 200 199 201 151 164 132 136 147 154 149 127 137 171
325 323 327 332 327 311 258 227 233 231 232 235 234 236 223 214 220 212 208 206 202 208 213 209 209 208 207 208 209 206 211 213 211 208 204 198 198 191 193 189 188 198 200 202 202 205 203 203 213 221 228 220 213 200 202 210 221 223 211 208 196 187 190 183 173 176 174 170 187 199 191 181 181 208 199 179 145 155 146 177 190 158 159 156 219
320 314 322 330 327 321 304 266 242 241 240 237 237 235 235 230 221 221 225 201 192 187 183 202 208 223 223 217 212 213 211 208 207 208 205 199 196 191 191 189 192 196 200 199 200 202 202 199 203 215 220 219 210 198 194 207 207 215 205 200 202 206 197 199 198 184 170 178 182 199 216 168 186 198 188 149 148 166 164 195 180 157 159 190 211
314 317 321 324 327 325 320 298 276 265 252 246 243 243 241 240 190 179 198 199 187 192 190 188 184 181 189 226 250 231 220 207 202 207 208 200 196 191 190 189 190 197 200 199 200 200 199 201 201 205 206 211 208 194 187 187 184 192 194 197 203 198 194 203 205 192 192 189 189 202 194 194 196 175 161 174 172 174 173 179 182 179 172 328 346
310 315 318 320 323 322 319 312 293 276 264 254 244 241 232 211 185 182 184 198 208 214 217 204 199 201 201 195 190 221 251 216 201 205 206 203 192 193 193 190 190 194 196 198 200 201 197 196 197 200 204 207 208 195 191 172 177 182 192 205 215 217 218 218 318 271 229 201 192 194 193 188 184 166 166 168 154 118 95 76 83 77 91 60 189
311 309 312 313 316 318 317 312 309 293 269 254 246 236 223 203 198 185 191 206 208 209 214 217 217 210 206 200 194 196 213 231 213 204 204 199 183 195 192 191 193 193 198 196 196 195 195 197 196 200 198 205 198 187 184 168 184 187 189 195 200 208 233 252 41 32 4 340 292 223 184 180 176 167 161 160 154 148 118 120 163 137 121 148 265
310 311 309 310 313 316 313 309 305 304 291 265 254 248 229 209 205 187 197 207 214 216 220 225 225 216 206 200 196 201 208 215 226 215 200 191 184 188 189 187 193 196 200 196 190 193 198 197 196 198 200 203 187 186 183 175 185 187 185 183 190 214 235 202 131 23 27 19 29 31 150 175 169 167 165 164 157 154 146 173 190 145 165 168 192
305 311 308 306 309 311 309 305 302 299 292 276 260 255 233 217 206 201 211 215 220 211 207 218 221 216 209 207 199 201 209 212 207 231 214 194 192 192 187 186 186 196 190 195 193 194 200 204 201 199 203 202 184 185 182 183 183 183 182 179 196 209 217 177 181 186 214 153 319 58 55 97 167 167 176 172 171 175 173 170 148 156 168 188 166
281 279 297 303 303 306 306 304 299 297 290 282 268 253 247 238 219 213 220 219 226 221 194 218 237 226 211 201 203 203 207 215 195 212 223 205 194 190 186 180 193 192 189 189 191 198 198 204 207 205 205 201 189 186 185 188 185 185 175 184 192 213 192 172 194 186 187 194 186 197 162 166 159 160 132 167 201 197 174 156 167 165 165 174 183
293 295 295 300 304 302 302 299 299 298 288 274 270 258 241 239 236 228 222 210 236 254 222 201 219 232 217 206 204 206 205 211 204 194 213 212 199 192 184 192 191 184 187 192 194 194 197 204 208 203 204 204 193 189 188 195 195 184 185 192 197 196 156 174 188 181 177 176 169 165 134 150 170 163 176 195 206 218 206 204 182 174 162 169 176
297 302 303 301 300 297 299 299 297 295 294 287 272 257 240 237 238 236 223 188 206 236 239 222 220 224 219 204 203 206 213 218 240 201 204 212 205 199 190 199 187 180 185 195 195 200 198 198 205 202 201 203 199 191 193 195 199 191 196 198 187 151 167 179 168 166 170 161 154 162 158 165 178 198 208 218 222 223 217 211 203 196 192 177 174
285 299 302 302 298 295 296 300 299 300 296 289 279 268 248 232 236 235 227 216 209 216 217 208 212 215 212 195 174 149 140 162 207 202 218 220 210 206 205 195 184 181 187 192 197 201 195 196 201 196 195 200 197 195 194 197 192 205 200 197 173 173 169 159 160 163 164 167 163 179 189 186 187 205 210 217 226 224 225 221 212 206 217 224 219
250 276 291 293 295 294 296 299 299 296 293 291 285 277 264 234 237 232 229 226 225 220 205 206 211 198 192 187 170 163 159 143 157 150 160 203 265 247 230 207 177 196 188 197 195 194 191 194 197 191 192 196 197 195 198 191 194 205 198 196 179 173 168 158 162 170 165 161 180 188 198 202 200 203 213 213 210 210 215 216 219 216 216 223 227
247 260 273 277 281 289 296 296 295 294 288 283 286 284 274 246 240 239 232 231 226 210 212 207 205 202 190 192 190 185 186 170 154 155 153 161 167 178 269 306 282 203 191 206 188 194 196 194 195 186 190 194 196 196 195 197 200 191 192 189 174 168 174 165 170 157 163 181 192 200 205 202 202 208 209 207 203 172 199 227 219 228 234 240 243
254 253 260 268 272 281 291 294 293 290 288 280 275 273 272 253 235 241 232 233 225 222 213 206 208 205 197 194 195 202 201 194 145 133 136 143 148 160 171 198 261 260 224 199 193 189 192 196 194 191 189 190 172 163 184 199 200 192 193 182 175 174 171 167 164 168 185 189 192 201 211 200 209 221 201 152 165 204 205 208 187 221 205 216 237
252 254 255 264 271 271 279 286 290 290 287 288 276 275 270 249 231 235 234 234 230 224 215 216 217 209 210 200 194 187 196 190 174 155 155 158 173 179 181 191 186 202 248 158 187 196 201 200 199 191 182 178 182 186 180 147 140 154 168 195 192 179 175 171 173 179 186 187 197 210 210 205 189 151 185 188 208 219 200 202 196 216 190 197 195
246 252 252 255 267 265 269 278 283 285 286 283 285 281 271 246 232 228 226 226 227 223 217 224 221 213 207 195 189 190 196 194 171 160 146 152 160 167 166 148 158 181 200 197 178 170 158 127 112 105 108 112 140 134 153 161 175 165 179 186 188 183 158 147 142 166 180 183 188 175 181 160 191 210 206 204 219 226 194 195 199 214 191 156 167
244 250 251 248 257 261 261 271 275 279 280 281 273 263 265 260 241 239 232 223 215 215 220 225 226 229 221 190 185 198 196 194 190 175 172 170 164 154 168 187 191 188 196 173 136 106 112 133 140 143 153 157 157 169 165 162 171 178 174 177 181 158 147 164 168 173 175 161 180 181 196 193 213 207 206 217 229 231 177 188 197 187 180 181 210
247 248 242 239 246 262 268 268 271 272 274 276 282 280 252 237 256 250 257 250 232 222 215 224 216 201 231 248 209 191 202 208 176 175 167 165 172 177 182 186 186 197 174 137 111 120 151 163 173 171 167 166 172 175 178 174 164 165 179 174 172 169 178 185 193 189 169 181 174 174 192 193 208 197 197 209 232 229 213 192 196 172 167 192 206
242 242 240 239 240 252 265 271 270 269 269 272 275 277 280 263 242 248 250 264 279 263 237 232 224 200 197 221 246 268 228 197 168 168 170 177 181 188 193 191 195 169 107 125 138 162 172 173 180 184 184 179 180 182 177 174 173 169 172 175 177 180 182 187 202 191 190 193 189 194 193 191 207 199 199 206 203 215 212 218 184 174 199 192 204
236 235 234 239 245 248 260 263 265 266 266 265 265 270 269 273 266 216 220 246 254 253 241 227 218 211 206 212 213 229 257 248 206 179 177 180 184 188 190 192 182 157 172 146 128 174 183 180 178 184 183 186 190 178 175 177 178 173 162 160 178 182 178 199 195 184 196 193 202 204 203 205 210 202 197 192 179 181 181 181 184 193 210 204 213
231 237 237 244 247 252 257 262 260 256 259 260 263 259 261 259 260 267 221 241 235 240 243 230 220 215 210 212 208 202 212 180 209 211 191 181 180 184 186 181 161 156 127 143 173 193 190 189 188 186 182 187 180 175 173 172 168 172 167 166 174 189 198 195 161 182 189 197 192 205 205 208 206 203 204 181 163 185 191 197 207 205 195 206 234
233 235 239 242 246 251 252 256 253 250 247 249 252 256 253 252 254 252 254 217 155 359 323 247 232 227 230 216 201 198 206 202 196 194 201 197 186 179 165 138 129 155 168 177 188 200 190 191 191 181 183 185 173 163 163 166 168 165 164 175 180 184 189 165 169 183 186 185 196 209 201 203 188 186 198 189 192 168 178 202 190 191 209 216 224
239 241 239 241 247 250 254 255 252 246 247 246 249 248 249 249 243 243 237 229 211 197 199 222 259 256 220 221 221 210 203 199 191 193 185 188 183 149 119 111 124 166 210 207 198 195 190 191 188 187 183 177 174 166 165 165 163 168 172 174 181 175 160 166 181 173 180 182 191 199 201 201 193 190 181 185 175 181 196 187 196 202 206 220 229
242 246 247 242 244 250 252 253 249 244 244 247 245 246 245 243 238 234 233 229 219 211 201 187 194 322 210 210 216 218 211 196 190 188 191 173 152 138 147 161 163 177 187 197 202 195 189 191 187 191 186 175 164 164 160 162 169 170 172 171 174 168 165 166 168 181 190 183 196 196 188 199 195 189 186 182 189 196 195 193 194 199 204 208 210
245 250 252 250 251 251 252 250 248 241 240 241 241 244 241 239 235 229 228 224 221 212 187 160 136 134 53 72 150 167 163 168 165 158 169 162 157 160 171 174 183 171 182 188 186 181 186 193 185 162 153 162 169 156 151 152 159 159 153 159 163 159 172 172 170 172 173 181 189 187 191 197 189 182 174 188 193 191 192 191 193 193 197 211 198
252 253 255 254 252 251 250 250 245 238 237 237 239 240 239 232 226 223 221 220 208 194 182 174 180 171 173 171 153 138 114 111 105 96 94 103 146 177 179 187 177 171 178 184 169 173 173 154 130 145 161 155 148 138 138 153 154 149 155 159 160 159 140 144 154 163 168 171 171 172 171 168 168 166 166 174 182 184 185 184 185 191 200 195 185
257 254 253 253 250 250 249 245 240 234 233 233 234 233 231 225 220 215 212 205 196 191 185 182 186 175 157 140 128 130 123 128 143 146 151 164 174 180 171 166 163 162 161 162 164 165 152 139 145 146 142 131 141 150 143 144 146 140 137 133 128 127 134 139 134 121 109 116 126 125 129 134 139 147 158 150 160 178 182 183 188 194 202 200 204
260 263 256 250 249 245 242 240 235 229 228 229 230 224 221 216 213 207 203 193 189 182 175 167 153 152 152 152 143 143 130 135 135 140 143 141 138 142 159 168 166 164 162 159 161 159 144 142 148 152 151 148 131 138 141 135 131 128 120 117 113 104 101 104 103 104 98 90 95 89 100 112 122 121 126 146 159 158 161 185 204 197 200 201 211
261 262 261 258 250 248 236 228 224 223 224 219 221 216 214 209 204 198 191 189 179 170 164 157 148 143 158 154 152 141 125 122 119 110 112 113 109 102 102 94 68 126 134 120 104 103 112 106 93 97 105 99 95 90 99 112 113 111 112 109 101 97 90 80 83 85 83 74 75 74 68 74 64 76 72 34 40 90 101 113 132 165 197 201 208
257 263 278 275 251 234 228 212 214 212 213 214 210 208 203 194 190 184 183 182 172 160 149 140 142 137 118 104 98 104 106 109 107 106 101 97 96 90 80 99 100 65 54 86 97 89 83 87 91 89 84 80 89 93 91 89 93 95 92 87 86 82 74 67 65 69 74 77 67 69 69 69 73 76 78 91 76 78 80 77 77 2 288 287 315
302 318 307 294 297 120 173 193 199 204 203 203 199 180 171 171 167 158 148 143 144 141 136 134 134 117 112 108 106 101 96 100 99 96 87 85 91 92 89 89 98 97 87 82 84 93 95 88 80 69 67 62 60 62 69 71 81 87 86 87 84 80 77 69 63 59 61 67 66 61 62 59 60 58 53 45 51 58 48 47 36 32 14 7 5
359 326 294 277 35 41 58 90 98 107 115 105 103 126 133 127 124 122 116 107 104 107 116 120 125 114 104 88 91 91 93 89 83 83 87 88 85 83 85 85 86 88 83 77 78 86 89 86 82 75 66 60 57 56 56 53 61 76 83 84 78 75 73 65 60 54 59 70 66 62 58 60 58 60 53 41 42 48 31 29 27 22 13 15 26
357 306 325 25 40 38 46 68 84 88 87 90 84 76 89 99 102 101 98 95 89 87 84 83 78 84 94 94 89 85 83 84 87 88 87 89 90 88 84 77 74 76 74 70 70 77 81 83 81 78 73 63 61 60 60 58 57 60 66 78 82 75 66 65 59 59 66 76 73 69 61 58 56 53 54 45 45 50 37 16 7 2 357 349 352
334 341 14 27 31 28 28 36 44 55 62 70 80 77 71 77 76 78 85 86 83 84 81 73 72 75 82 86 85 83 86 88 88 87 87 83 81 81 82 81 77 73 72 73 72 73 73 77 82 82 80 77 71 66 60 54 59 61 54 58 70 75 69 61 56 60 58 64 72 81 81 76 68 69 70 63 68 67 50 0 24 4 270 287 291
21 29 47 50 50 46 39 47 53 54 59 64 65 71 71 67 70 70 69 74 79 81 80 81 83 83 80 81 83 84 84 83 82 80 81 83 85 86 83 82 80 78 75 74 76 80 81 80 81 85 85 80 70 68 64 57 53 57 57 60 70 70 65 61 58 64 66 61 71 82 83 87 77 52 32 27 24 6 5 328 314 299 291 269 275
37 43 51 53 51 56 57 59 60 56 54 59 62 58 63 71 71 68 72 73 74 76 81 82 81 80 82 82 83 86 86 83 79 79 79 78 77 78 81 80 80 82 81 79 78 81 83 85 87 87 86 81 79 73 66 59 59 61 61 58 56 63 58 57 55 43 33 32 36 53 57 57 46 32 18 11 326 306 318 295 294 279 277 281 277
38 38 40 41 46 50 54 60 68 79 75 67 66 69 70 72 72 73 71 70 68 67 71 74 76 76 74 75 77 76 75 78 78 75 73 72 72 74 76 77 77 78 80 80 79 78 78 79 80 80 82 80 75 74 73 72 69 67 65 67 65 67 62 55 54 38 21 28 27 25 28 28 3 329 318 309 296 286 272 273 273 278 276 272 269
43 46 51 59 64 66 59 62 69 71 75 80 80 78 75 76 78 79 79 77 74 71 70 71 71 73 76 75 74 74 75 76 75 74 72 70 69 71 73 75 75 76 79 82 81 83 84 86 87 87 86 86 84 83 83 82 81 77 73 69 67 63 59 53 46 32 26 19 18 7 6 354 352 330 325 322 314 318 314 305 300 296 289 280 270
44 46 49 52 55 54 55 56 56 59 64 71 75 78 77 77 79 79 79 79 80 78 75 74 73 71 70 69 71 74 75 75 74 74 72 69 66 66 67 71 74 76 77 78 80 80 82 83 83 83 82 80 79 78 77 76 75 75 75 71 65 63 58 53 48 33 29 24 22 25 35 29 20 12 0 357 346 335 315 311 303 297 289 285 280